Location: Dumpton Point
(51.3500°N, 1.4433°E)
Time: 08:48:52
(UTC+00:00)

Vanguard 2 - All Passes

Search period start: 07 October 2022 00:00
Search period end: 17 October 2022 00:00
Orbit: 552 x 2934 km, 32.9° (Epoch: 06 October)

Date Brightness Start Highest point End Pass type
(mag) Time Alt. Az. Time Alt. Az. Time Alt. Az.
07 Oct - 09:57:33 10° SE 09:58:50 10° SE 10:00:11 10° SE daylight
07 Oct - 11:57:55 10° SSW 12:05:53 27° SSE 12:16:59 10° ESE daylight
07 Oct - 14:04:19 10° WSW 14:14:40 35° S 14:28:45 10° ESE daylight
07 Oct - 16:13:02 10° WSW 16:24:20 28° SSW 16:37:49 10° SSE daylight
07 Oct - 18:26:30 10° WSW 18:33:30 14° SW 18:40:48 10° SSW visible
08 Oct - 10:11:07 10° SSE 10:15:12 14° SE 10:20:06 10° ESE daylight
08 Oct - 12:14:25 10° SW 12:22:34 29° SSE 12:34:08 10° ESE daylight
08 Oct - 14:21:17 10° WSW 14:31:32 33° S 14:45:20 10° SE daylight
08 Oct - 16:30:35 10° WSW 16:41:05 24° SSW 16:53:27 10° SSE daylight
09 Oct - 10:26:32 10° S 10:31:39 17° SE 10:38:12 10° ESE daylight
09 Oct - 12:31:04 10° SW 12:39:19 30° SSE 12:51:08 10° ESE daylight
09 Oct - 14:38:22 10° WSW 14:48:23 31° S 15:01:44 10° SE daylight
09 Oct - 16:48:29 10° WSW 16:57:49 20° SSW 17:08:33 10° S daylight
10 Oct - 10:42:30 10° SSW 10:48:11 20° SSE 10:55:48 10° ESE daylight
10 Oct - 12:47:51 10° SW 12:56:07 31° S 13:07:59 10° ESE daylight
10 Oct - 14:55:36 10° WSW 15:05:15 28° SSW 15:17:52 10° SE daylight
10 Oct - 17:07:03 10° WSW 17:14:30 16° SW 17:22:48 10° S daylight
11 Oct - 10:58:48 10° SSW 11:04:48 22° SSE 11:13:07 10° ESE daylight
11 Oct - 13:04:44 10° SW 13:12:58 30° S 13:24:41 10° SE daylight
11 Oct - 15:13:01 10° WSW 15:22:06 24° SSW 15:33:41 10° SSE daylight
11 Oct - 17:27:42 10° SW 17:31:10 11° SW 17:34:47 10° SSW visible
12 Oct - 11:15:18 10° SSW 11:21:30 24° SSE 11:30:15 10° ESE daylight
12 Oct - 13:21:46 10° WSW 13:29:50 28° S 13:41:11 10° SE daylight
12 Oct - 15:30:46 10° WSW 15:38:56 20° SSW 15:49:00 10° SSE daylight
13 Oct - 09:28:13 10° S 09:31:04 13° SSE 09:34:25 10° SE daylight
13 Oct - 11:31:59 10° SW 11:38:16 25° SSE 11:47:13 10° ESE daylight
13 Oct - 13:38:56 10° WSW 13:46:43 25° S 13:57:27 10° SE daylight
13 Oct - 15:49:04 10° WSW 15:55:44 16° SSW 16:03:36 10° S daylight
14 Oct - 09:43:57 10° S 09:47:39 15° SSE 09:52:15 10° ESE daylight
14 Oct - 11:48:49 10° SW 11:55:05 25° S 12:04:00 10° SE daylight
14 Oct - 13:56:17 10° WSW 14:03:37 22° SSW 14:13:24 10° SSE daylight
14 Oct - 16:08:57 10° SW 16:12:31 11° SSW 16:16:25 10° SSW daylight
15 Oct - 10:00:11 10° SSW 10:04:18 17° SSE 10:09:38 10° ESE daylight
15 Oct - 12:05:47 10° SW 12:11:56 24° S 12:20:36 10° SE daylight
15 Oct - 14:13:57 10° WSW 14:20:31 18° SSW 14:28:54 10° SSE daylight
16 Oct - 10:16:42 10° SSW 10:21:02 18° SSE 10:26:45 10° SE daylight
16 Oct - 12:22:54 10° SW 12:28:50 22° S 12:36:58 10° SE daylight
16 Oct - 14:32:10 10° SW 14:37:24 15° SSW 14:43:40 10° S daylight
